This is the latest recevied weather packets stored in our database for station/object WL7CLI. If no packets are shown the sender has not sent any weather packets the latest 10 day(s).
| Time | Temp. | Humidity | Pressure | Rain* | Wind** | Luminosity | Snow |
|---|---|---|---|---|---|---|---|
| 1777949905 | 14.44° C | 39% | 1006.5 hPa | 0 mm | - | - | - |
| 1777949899 | 14.44° C | 39% | 1005.9 hPa | 0 mm | - | - | - |
| 1777949775 | 14.44° C | 39% | 1006 hPa | 0 mm | - | - | - |
| 1777948700 | 15° C | 41% | 1005.2 hPa | 0 mm | - | - | - |
| 1777948575 | 15° C | 40% | 1005.4 hPa | 0 mm | - | - | - |
| 1777948104 | 15.56° C | 39% | 1005.9 hPa | 0 mm | - | - | - |
| 1777947499 | 15.56° C | 37% | 1004.9 hPa | 0 mm | - | - | - |
| 1777947375 | 15.56° C | 37% | 1004.9 hPa | 0 mm | - | - | - |
| 1777946304 | 16.11° C | 37% | 1005.1 hPa | 0 mm | - | - | - |
| 1777946299 | 16.11° C | 37% | 1004.5 hPa | 0 mm | - | - | - |
| 1777946174 | 16.11° C | 37% | 1004.4 hPa | 0 mm | - | - | - |
| 1777945099 | 17.22° C | 36% | 1004 hPa | 0 mm | - | - | - |
| 1777944974 | 17.78° C | 35% | 1003.9 hPa | 0 mm | - | - | - |
| 1777944505 | 17.78° C | 34% | 1004 hPa | 0 mm | - | - | - |
| 1777943898 | 18.33° C | 34% | 1003.4 hPa | 0 mm | - | - | - |
| 1777943774 | 18.33° C | 33% | 1003.2 hPa | 0 mm | - | - | - |
| 1777942705 | 19.44° C | 32% | 1003.3 hPa | 0 mm | - | - | - |
| 1777942700 | 19.44° C | 32% | 1002.7 hPa | 0 mm | - | - | - |
| 1777942574 | 19.44° C | 32% | 1002.8 hPa | 0 mm | - | - | - |
| 1777941498 | 20° C | 30% | 1002.3 hPa | 0 mm | - | - | - |
| 1777941376 | 20° C | 31% | 1002.1 hPa | 0 mm | - | - | - |
| 1777940904 | 21.11° C | 31% | 1002.5 hPa | 0 mm | - | - | - |
| 1777940299 | 21.67° C | 32% | 1001.8 hPa | 0 mm | - | - | - |
| 1777940173 | 21.67° C | 31% | 1001.8 hPa | 0 mm | - | - | - |
| 1777939104 | 22.78° C | 31% | 1002.2 hPa | 0 mm | - | - | - |
* Rain latest hour (hover to see other rain measurements)
** Current wind speed in m/s (hover to see current wind gust speed)